Location: La Pernelle
(49.6188°N, 1.2999°W)
Time: 08:31:21
(UTC+00:00)

SL-16 R/B - Pass Details

Date: 24 October 2021
Orbit: 842 x 846 km, 71.0° (Epoch: 04 December)

Event Time Altitude Azimuth Distance (km) Brightness Sun altitude
Rises 19:36:01 0° 236° (SW) 3,394 5.9 -26.3°
Reaches altitude 10° 19:38:40 10° 245° (WSW) 2,463 5.2 -26.7°
Maximum altitude 19:43:50 36° 311° (NW) 1,326 3.6 -27.5°
Drops below altitude 10° 19:49:02 10° 17° (NNE) 2,478 4.6 -28.4°
Enters shadow 19:49:36 - 20° (NNE) 2,668 4.7 -28.4°
